TimeEDT,TemperatureF,Dew PointF,Humidity,Sea Level PressureIn,VisibilityMPH,Wind Direction,Wind SpeedMPH,Gust SpeedMPH,PrecipitationIn,Events,Conditions,WindDirDegrees,DateUTC
12:53 AM,68.0,41.0,37,30.24,10.0,SE,10.4,-,N/A,,Clear,140,2013-05-02 04:53:00
1:53 AM,66.9,37.9,34,30.24,10.0,SE,13.8,19.6,N/A,,Clear,140,2013-05-02 05:53:00
2:53 AM,64.0,37.9,38,30.24,10.0,SE,10.4,19.6,N/A,,Clear,140,2013-05-02 06:53:00
3:53 AM,62.1,37.9,41,30.25,10.0,SE,8.1,-,N/A,,Clear,140,2013-05-02 07:53:00
4:53 AM,61.0,36.0,39,30.25,10.0,SSE,11.5,-,N/A,,Clear,150,2013-05-02 08:53:00
5:53 AM,60.1,36.0,41,30.26,10.0,SSE,13.8,-,N/A,,Clear,150,2013-05-02 09:53:00
6:53 AM,59.0,36.0,42,30.27,10.0,SSE,11.5,20.7,N/A,,Clear,150,2013-05-02 10:53:00
7:53 AM,60.1,37.0,42,30.28,10.0,SSE,16.1,21.9,N/A,,Clear,160,2013-05-02 11:53:00
8:53 AM,64.0,37.9,38,30.29,10.0,SSE,18.4,25.3,N/A,,Clear,160,2013-05-02 12:53:00
9:53 AM,66.9,39.9,37,30.28,10.0,SSE,13.8,21.9,N/A,,Clear,160,2013-05-02 13:53:00
10:53 AM,70.0,43.0,38,30.28,10.0,SSE,9.2,18.4,N/A,,Clear,160,2013-05-02 14:53:00
11:53 AM,72.0,45.0,38,30.27,10.0,South,9.2,-,N/A,,Clear,190,2013-05-02 15:53:00
12:53 PM,73.9,46.9,38,30.26,10.0,SE,8.1,-,N/A,,Clear,130,2013-05-02 16:53:00
1:53 PM,69.1,50.0,51,30.24,10.0,North,8.1,-,N/A,,Clear,10,2013-05-02 17:53:00
2:53 PM,64.9,48.9,56,30.23,10.0,NE,13.8,-,N/A,,Clear,40,2013-05-02 18:53:00
3:53 PM,60.1,48.9,67,30.22,10.0,NE,11.5,-,N/A,,Clear,40,2013-05-02 19:53:00
4:53 PM,57.9,48.0,70,30.19,10.0,NE,11.5,-,N/A,,Clear,40,2013-05-02 20:53:00
5:53 PM,62.1,48.9,62,30.17,10.0,NNE,10.4,-,N/A,,Clear,30,2013-05-02 21:53:00
6:53 PM,75.9,41.0,29,30.15,10.0,SE,8.1,17.3,N/A,,Clear,130,2013-05-02 22:53:00
7:53 PM,75.0,37.9,26,30.15,10.0,SE,10.4,-,N/A,,Clear,140,2013-05-02 23:53:00
8:53 PM,72.0,34.0,25,30.16,10.0,ESE,4.6,-,N/A,,Clear,120,2013-05-03 00:53:00
9:53 PM,71.1,30.9,23,30.15,10.0,ESE,5.8,-,N/A,,Clear,110,2013-05-03 01:53:00
10:53 PM,71.1,30.0,22,30.14,10.0,SE,13.8,23.0,N/A,,Clear,130,2013-05-03 02:53:00
11:53 PM,69.1,30.9,24,30.15,10.0,SE,11.5,-,N/A,,Clear,140,2013-05-03 03:53:00